Topeka, KS

1:36 AM CDT on September 20, 2019 (GMT -0500)
Billard Municipal

Weather History for KTOP - July, 2019

Change the Weather History Date:

Saturday, July 20, 2019

  Actual Average Record
Temperature  
Mean Temperature 89 °F 79 °F  
Max Temperature 98 °F 90 °F 109 °F (1934)
Min Temperature 80 °F 69 °F 52 °F (1971)
Degree Days  
Heating Degree Days 0 0  
Month to date heating degree days 0 0  
Since 1 June heating degree days 0 8  
Since 1 July heating degree days 0 0  
Cooling Degree Days 24 14  
Month to date cooling degree days 331 275  
Year to date cooling degree days 758 685  
Since 1 June cooling degree days 646 559  
Growing Degree Days 39 (Base 50)    
Moisture  
Dew Point 74 °F    
Average Humidity 65    
Maximum Humidity 79    
Minimum Humidity 51    
Precipitation  
Precipitation 0.00 in 0.11 in 2.44 in (1973)
Month to date precipitation 1.85 2.58  
Year to date precipitation 26.57 21.09  
Snow  
Snow 0.00 in 0.00 in 0.00 in ()
Month to date snowfall 0.0 0.0  
Year to date snowfall 18.5 11.3  
Since 1 July snowfall 0.0 0.0  
Snow Depth 0.00 in    
Sea Level Pressure  
Sea Level Pressure 29.77 in    
Wind  
Wind Speed 12 mph (South)    
Max Wind Speed 22 mph    
Max Gust Speed 31 mph    
Visibility 10 miles    
Events      
T = Trace of Precipitation, MM = Missing Value Source: NWS Daily Summary

Daily Weather History Graph

Daily Weather History Graph

Search for Another Location

Airport or City:

Astronomy

Jul. 20, 2019 Rise Set
Actual Time 6:12 AM CDT 8:44 PM CDT
Civil Twilight 5:41 AM CDT 9:15 PM CDT
Nautical Twilight 5:03 AM CDT 9:53 PM CDT
Astronomical Twilight 4:20 AM CDT 10:36 PM CDT
Moon 11:13 PM CDT 9:36 AM CDT
Length of Visible Light 15h 33m
Length of Day
14h 31m
Waning Gibbous, 87% of the Moon is Illuminated
Jul 20
Waning Gibbous
Jul 24
Last Quarter
Jul 31
New
Aug 7
First Quarter
Aug 15
Full

Hourly Weather History & Observations

Time (CDT) Temp. Heat Index Dew Point Humidity Pressure Visibility Wind Dir Wind Speed Gust Speed Precip Events Conditions
12:53 AM 84.9 °F 92.1 °F 73.9 °F 69% 29.79 in 10.0 mi South 10.4 mph 17.3 mph N/A   Clear
1:53 AM 84.0 °F 91.2 °F 73.9 °F 72% 29.80 in 10.0 mi South 5.8 mph - N/A   Clear
2:53 AM 82.9 °F 88.8 °F 73.0 °F 72% 29.80 in 10.0 mi South 6.9 mph - N/A   Clear
3:53 AM 82.0 °F 87.4 °F 73.0 °F 74% 29.79 in 10.0 mi South 10.4 mph 17.3 mph N/A   Clear
4:53 AM 81.0 °F 85.8 °F 73.0 °F 77% 29.79 in 10.0 mi South 9.2 mph 19.6 mph N/A   Clear
5:53 AM 80.1 °F 83.8 °F 72.0 °F 76% 29.79 in 10.0 mi South 13.8 mph 19.6 mph N/A   Clear
6:53 AM 80.1 °F 83.8 °F 72.0 °F 76% 29.78 in 10.0 mi South 13.8 mph 23.0 mph N/A   Clear
7:53 AM 82.0 °F 86.7 °F 72.0 °F 71% 29.78 in 10.0 mi South 15.0 mph 27.6 mph N/A   Clear
8:53 AM 84.0 °F 90.2 °F 73.0 °F 69% 29.77 in 10.0 mi South 16.1 mph 31.1 mph N/A   Clear
9:53 AM 86.0 °F 93.0 °F 73.0 °F 65% 29.78 in 10.0 mi South 13.8 mph 23.0 mph N/A   Clear
10:53 AM 89.1 °F 98.0 °F 73.9 °F 61% 29.78 in 10.0 mi South 11.5 mph 23.0 mph N/A   Clear
11:53 AM 91.9 °F 101.3 °F 73.9 °F 55% 29.78 in 10.0 mi South 13.8 mph - N/A   Clear
12:53 PM 93.0 °F 103.2 °F 73.9 °F 54% 29.77 in 10.0 mi SSW 12.7 mph 21.9 mph N/A   Clear
1:53 PM 96.1 °F 108.6 °F 75.0 °F 51% 29.75 in 10.0 mi South 12.7 mph 25.3 mph N/A   Clear
2:53 PM 97.0 °F 109.3 °F 75.0 °F 49% 29.73 in 10.0 mi South 16.1 mph - N/A   Clear
3:53 PM 97.0 °F 110.9 °F 75.9 °F 51% 29.77 in 10.0 mi South 10.4 mph 18.4 mph N/A   Clear
4:53 PM 97.0 °F 110.9 °F 75.9 °F 51% 29.74 in 10.0 mi South 18.4 mph 26.5 mph N/A   Clear
5:53 PM 97.0 °F 110.9 °F 75.9 °F 51% 29.74 in 10.0 mi South 12.7 mph 23.0 mph N/A   Clear
6:53 PM 96.1 °F 109.4 °F 75.9 °F 52% 29.75 in 10.0 mi South 8.1 mph - N/A   Clear
7:53 PM 93.9 °F 106.9 °F 75.9 °F 56% 29.74 in 10.0 mi South 9.2 mph - N/A   Clear
8:53 PM 91.9 °F 103.2 °F 75.0 °F 58% 29.75 in 10.0 mi South 10.4 mph - N/A   Clear
9:53 PM 89.1 °F 100.2 °F 75.9 °F 65% 29.76 in 10.0 mi South 8.1 mph - N/A   Clear
10:53 PM 88.0 °F 97.5 °F 75.0 °F 65% 29.78 in 10.0 mi South 10.4 mph 18.4 mph N/A   Clear
11:53 PM 87.1 °F 96.3 °F 75.0 °F 67% 29.81 in 10.0 mi South 9.2 mph - N/A   Clear